Starlink 11410

operational
NORAD ID: 61946 Int'l Des: 2024-209 Owner: SPXS Country: US Constellation: starlink
LEOCIRCULAR

About Starlink 11410

Description loading...

Live Position

Loading 3D Globe...

Upcoming Passes

Altitude History

Altitude vs Time

uPlot chart will show altitude changes over time

Two-Line Element Set

1 61946U 24209H 25353.57648501 .00124500 00000-0 10154-2 0 9992
2 61946 53.1570 46.3062 0000913 80.6691 279.4430 15.69750299 64139
Epoch: Dec 19, 2025 • Age: 10 hours

Current Status

Altitude 374.4 km
Velocity 7.68 km/s
Sub-Earth Point -43.57°S, 94.03°W
Launch Date Nov 14, 2024
Age 1 years
Type internet

Technical Details

Classification Payload
Mass 960.00 kg
Dry Mass 910.00 kg
Total Mass 960.00 kg
Length 0.30 m
Diameter 4.10 m
Span 29.00 m
Shape Box + pan
Manufacturer SPXS
Bus Type Starlink V2MD
Phase Status In Orbit
Owner/State SPXS/US

Large Constellations

Loading constellations...